Location: Rounton
(54.4000°N, 1.3500°W)
Time: 22:11:19
(UTC+00:00)

Vanguard 1 - Pass Details

Date: 03 December 2021
Orbit: 652 x 3830 km, 34.2° (Epoch: 16 January)

Event Time Altitude Azimuth Distance (km) Brightness Sun altitude
Rises 22:10:09 0° 196° (SSW) 7,135 - -52.2°
Reaches altitude 10° 22:16:14 10° 184° (S) 6,490 - -52.8°
Maximum altitude 22:31:21 24° 141° (SE) 5,792 - -54.2°
Drops below altitude 10° 22:46:37 10° 98° (E) 6,631 - -55.3°
Exits shadow 22:50:44 - 90° (E) 7,077 14.3 -55.6°
Sets 22:52:49 0° 87° (E) 7,328 14.4 -55.7°
